| time (UTC) | temp C | wind direction | speed KPH | gust KPH | rain 1hr cm | rain 24hr cm | rain mn cm | humidity % | barometer mb |
| 20260905173056 | 11 | 92 | 0.0 | 9.7 | 0.00 | 0.05 | 0.00 | 91 | 1011.9 |
| 20260905172539 | 11 | 78 | 1.6 | 9.7 | 0.00 | 0.05 | 0.00 | 91 | 1012.0 |
| 20260905172039 | 11 | 68 | 1.6 | 9.7 | 0.00 | 0.05 | 0.00 | 92 | 1012.0 |
| 20260905171553 | 11 | 278 | 1.6 | 14.5 | 0.00 | 0.05 | 0.00 | 92 | 1012.0 |
| 20260905171039 | 11 | 267 | 3.2 | 17.7 | 0.00 | 0.05 | 0.00 | 92 | 1012.0 |
| 20260905170539 | 11 | 294 | 6.4 | 17.7 | 0.00 | 0.05 | 0.00 | 93 | 1011.9 |
| 20260905170050 | 11 | 248 | 3.2 | 9.7 | 0.00 | 0.05 | 0.00 | 92 | 1011.8 |
| 20260905165542 | 11 | 261 | 0.0 | 6.4 | 0.00 | 0.05 | 0.00 | 92 | 1011.7 |
| 20260905165039 | 11 | 205 | 1.6 | 6.4 | 0.00 | 0.05 | 0.00 | 93 | 1011.8 |
| 20260905164559 | 11 | 266 | 0.0 | 6.4 | 0.00 | 0.05 | 0.00 | 92 | 1011.8 |
| 20260905164043 | 11 | 0 | 0.0 | 6.4 | 0.00 | 0.05 | 0.00 | 92 | 1011.6 |
| 20260905163536 | 11 | 0 | 0.0 | 6.4 | 0.00 | 0.05 | 0.00 | 92 | 1011.6 |
| 20260905163054 | 11 | 82 | 1.6 | 6.4 | 0.00 | 0.05 | 0.00 | 92 | 1011.5 |
| 20260905162540 | 11 | 258 | 1.6 | 6.4 | 0.00 | 0.05 | 0.00 | 92 | 1011.6 |
| 20260905162038 | 11 | 0 | 0.0 | 4.8 | 0.00 | 0.05 | 0.00 | 92 | 1011.5 |
| 20260905161553 | 11 | 0 | 0.0 | 9.7 | 0.00 | 0.05 | 0.00 | 92 | 1011.6 |
| 20260905161036 | 11 | 0 | 1.6 | 9.7 | 0.00 | 0.05 | 0.00 | 92 | 1011.5 |
| 20260905160539 | 11 | 92 | 1.6 | 11.3 | 0.00 | 0.05 | 0.00 | 92 | 1011.6 |
| 20260905160115 | 11 | 68 | 0.0 | 11.3 | 0.00 | 0.05 | 0.00 | 92 | 1011.6 |
| 20260905155539 | 11 | 260 | 1.6 | 11.3 | 0.00 | 0.05 | 0.00 | 92 | 1011.5 |
| 20260905155041 | 11 | 32 | 1.6 | 14.5 | 0.00 | 0.05 | 0.00 | 92 | 1011.6 |
| 20260905154602 | 11 | 275 | 6.4 | 14.5 | 0.00 | 0.05 | 0.00 | 92 | 1011.6 |
| 20260905154040 | 11 | 0 | 3.2 | 14.5 | 0.00 | 0.05 | 0.00 | 92 | 1011.7 |
| 20260905153540 | 11 | 271 | 3.2 | 14.5 | 0.00 | 0.05 | 0.00 | 92 | 1011.7 |
| 20260905153053 | 11 | 236 | 1.6 | 8.0 | 0.00 | 0.05 | 0.00 | 92 | 1011.8 |
| 20260905152539 | 11 | 236 | 3.2 | 9.7 | 0.00 | 0.05 | 0.00 | 92 | 1011.9 |
| 20260905152037 | 11 | 236 | 1.6 | 9.7 | 0.00 | 0.05 | 0.00 | 92 | 1012.1 |
| 20260905151601 | 11 | 240 | 0.0 | 4.8 | 0.00 | 0.05 | 0.00 | 92 | 1012.0 |
| 20260905151039 | 11 | 240 | 1.6 | 4.8 | 0.00 | 0.05 | 0.00 | 91 | 1012.0 |
| 20260905150539 | 11 | 219 | 0.0 | 3.2 | 0.00 | 0.05 | 0.00 | 91 | 1012.0 |
| 20260905150048 | 12 | 0 | 0.0 | 6.4 | 0.00 | 0.05 | 0.00 | 92 | 1012.1 |
| 20260905145540 | 12 | 0 | 0.0 | 8.0 | 0.00 | 0.05 | 0.00 | 92 | 1012.1 |
| 20260905145039 | 12 | 60 | 0.0 | 8.0 | 0.00 | 0.05 | 0.00 | 92 | 1012.2 |
| 20260905144553 | 12 | 257 | 1.6 | 8.0 | 0.00 | 0.05 | 0.00 | 92 | 1012.2 |
| 20260905144041 | 12 | 0 | 0.0 | 4.8 | 0.00 | 0.05 | 0.00 | 92 | 1012.4 |
| 20260905143539 | 12 | 79 | 0.0 | 6.4 | 0.00 | 0.05 | 0.00 | 92 | 1012.4 |
| 20260905143056 | 12 | 78 | 1.6 | 6.4 | 0.00 | 0.05 | 0.00 | 92 | 1012.7 |
| 20260905142542 | 11 | 108 | 0.0 | 8.0 | 0.00 | 0.05 | 0.00 | 91 | 1012.7 |
| 20260905142036 | 12 | 153 | 0.0 | 8.0 | 0.00 | 0.05 | 0.00 | 91 | 1012.7 |
| 20260905141551 | 12 | 67 | 0.0 | 8.0 | 0.00 | 0.05 | 0.00 | 91 | 1012.8 |
| 20260905141035 | 12 | 81 | 3.2 | 9.7 | 0.00 | 0.05 | 0.00 | 91 | 1012.7 |
| 20260905140542 | 12 | 273 | 1.6 | 11.3 | 0.00 | 0.05 | 0.00 | 92 | 1012.8 |
| 20260905140046 | 12 | 52 | 3.2 | 11.3 | 0.00 | 0.05 | 0.00 | 92 | 1012.8 |
| 20260905135537 | 12 | 275 | 1.6 | 11.3 | 0.00 | 0.05 | 0.00 | 92 | 1012.8 |
| 20260905135040 | 12 | 273 | 4.8 | 11.3 | 0.00 | 0.05 | 0.00 | 92 | 1012.7 |
| 20260905134605 | 12 | 263 | 3.2 | 11.3 | 0.00 | 0.05 | 0.00 | 91 | 1012.9 |
| 20260905134052 | 12 | 283 | 3.2 | 11.3 | 0.00 | 0.05 | 0.00 | 91 | 1012.9 |
| 20260905133539 | 12 | 270 | 3.2 | 14.5 | 0.00 | 0.05 | 0.00 | 90 | 1012.9 |
| 20260905133052 | 12 | 257 | 1.6 | 20.9 | 0.00 | 0.05 | 0.00 | 91 | 1013.0 |
| 20260905132539 | 12 | 290 | 4.8 | 20.9 | 0.00 | 0.05 | 0.00 | 91 | 1013.0 |
| 20260905132039 | 12 | 273 | 8.0 | 17.7 | 0.00 | 0.05 | 0.00 | 91 | 1013.1 |
| 20260905131557 | 12 | 265 | 6.4 | 16.1 | 0.00 | 0.05 | 0.00 | 90 | 1012.9 |
| 20260905131039 | 12 | 252 | 4.8 | 12.9 | 0.00 | 0.05 | 0.00 | 90 | 1012.9 |
| 20260905130540 | 12 | 278 | 4.8 | 12.9 | 0.00 | 0.05 | 0.00 | 90 | 1012.9 |
| 20260905130059 | 12 | 270 | 6.4 | 14.5 | 0.00 | 0.05 | 0.00 | 90 | 1012.9 |
| 20260905125538 | 12 | 293 | 8.0 | 14.5 | 0.00 | 0.05 | 0.00 | 91 | 1012.9 |
| 20260905125040 | 12 | 294 | 9.7 | 14.5 | 0.00 | 0.05 | 0.00 | 91 | 1012.8 |
| 20260905124558 | 11 | 283 | 6.4 | 12.9 | 0.00 | 0.05 | 0.00 | 91 | 1013.0 |
| 20260905124039 | 11 | 278 | 3.2 | 9.7 | 0.00 | 0.05 | 0.00 | 90 | 1013.1 |
| 20260905123539 | 11 | 278 | 1.6 | 3.2 | 0.00 | 0.05 | 0.00 | 89 | 1013.1 |
| 20260905123054 | 11 | 278 | 0.0 | 3.2 | 0.00 | 0.05 | 0.00 | 89 | 1013.1 |
| 20260905122540 | 12 | 278 | 3.2 | 6.4 | 0.00 | 0.05 | 0.00 | 89 | 1013.1 |
| 20260905122038 | 12 | 278 | 1.6 | 6.4 | 0.00 | 0.05 | 0.00 | 89 | 1013.0 |
| 20260905121601 | 12 | 278 | 0.0 | 6.4 | 0.00 | 0.05 | 0.00 | 89 | 1013.0 |
| 20260905121040 | 12 | 278 | 0.0 | 6.4 | 0.00 | 0.05 | 0.00 | 89 | 1013.0 |
| 20260905120539 | 12 | 278 | 0.0 | 12.9 | 0.00 | 0.05 | 0.00 | 89 | 1013.3 |
| 20260905120115 | 12 | 278 | 1.6 | 14.5 | 0.00 | 0.05 | 0.00 | 89 | 1013.3 |
| 20260905115539 | 12 | 32 | 6.4 | 19.3 | 0.00 | 0.05 | 0.05 | 89 | 1013.2 |
| 20260905115039 | 12 | 271 | 9.7 | 22.5 | 0.00 | 0.05 | 0.05 | 89 | 1013.2 |
| 20260905114555 | 12 | 244 | 11.3 | 22.5 | 0.00 | 0.05 | 0.05 | 90 | 1013.1 |
| 20260905114039 | 12 | 282 | 12.9 | 22.5 | 0.00 | 0.05 | 0.05 | 90 | 1013.1 |
| 20260905113540 | 12 | 257 | 11.3 | 19.3 | 0.00 | 0.05 | 0.05 | 90 | 1013.0 |
| 20260905113050 | 12 | 286 | 9.7 | 19.3 | 0.00 | 0.05 | 0.05 | 90 | 1012.9 |
| 20260905112541 | 11 | 236 | 4.8 | 14.5 | 0.00 | 0.05 | 0.05 | 89 | 1012.9 |
| 20260905112039 | 11 | 67 | 4.8 | 14.5 | 0.00 | 0.05 | 0.05 | 89 | 1012.8 |
| 20260905111611 | 12 | 248 | 1.6 | 14.5 | 0.00 | 0.05 | 0.05 | 89 | 1012.8 |
| 20260905111039 | 11 | 30 | 4.8 | 14.5 | 0.00 | 0.05 | 0.05 | 89 | 1013.0 |
| 20260905110539 | 11 | 268 | 4.8 | 14.5 | 0.00 | 0.05 | 0.05 | 89 | 1013.2 |
| 20260905110100 | 11 | 297 | 3.2 | 12.9 | 0.00 | 0.05 | 0.05 | 88 | 1013.1 |
| 20260905105536 | 12 | 253 | 6.4 | 12.9 | 0.00 | 0.05 | 0.05 | 88 | 1013.2 |
| 20260905105039 | 12 | 289 | 6.4 | 29.0 | 0.00 | 0.05 | 0.05 | 88 | 1013.3 |
| 20260905104553 | 12 | 55 | 11.3 | 40.2 | 0.00 | 0.05 | 0.05 | 88 | 1012.9 |
| 20260905104040 | 12 | 267 | 22.5 | 40.2 | 0.00 | 0.05 | 0.05 | 88 | 1012.8 |
| 20260905103539 | 12 | 275 | 20.9 | 30.6 | 0.00 | 0.05 | 0.05 | 87 | 1012.9 |
| 20260905103053 | 12 | 294 | 14.5 | 30.6 | 0.00 | 0.05 | 0.05 | 87 | 1013.1 |
| 20260905102539 | 12 | 271 | 17.7 | 30.6 | 0.00 | 0.05 | 0.05 | 86 | 1013.4 |
| 20260905102039 | 12 | 244 | 9.7 | 30.6 | 0.00 | 0.05 | 0.05 | 86 | 1013.6 |
| 20260905101547 | 12 | 249 | 16.1 | 30.6 | 0.00 | 0.05 | 0.05 | 85 | 1013.5 |
| 20260905101039 | 12 | 279 | 17.7 | 29.0 | 0.00 | 0.05 | 0.05 | 85 | 1013.2 |
| 20260905100539 | 12 | 278 | 16.1 | 29.0 | 0.00 | 0.05 | 0.05 | 85 | 1013.1 |
| 20260905100059 | 12 | 273 | 16.1 | 30.6 | 0.00 | 0.05 | 0.05 | 86 | 1013.1 |
| 20260905095539 | 12 | 296 | 16.1 | 30.6 | 0.00 | 0.05 | 0.05 | 87 | 1013.0 |
| 20260905095039 | 12 | 265 | 14.5 | 24.1 | 0.00 | 0.05 | 0.05 | 87 | 1013.0 |
| 20260905094558 | 12 | 275 | 12.9 | 19.3 | 0.00 | 0.05 | 0.05 | 87 | 1013.2 |
| 20260905094037 | 12 | 284 | 11.3 | 19.3 | 0.00 | 0.05 | 0.05 | 86 | 1013.1 |
| 20260905093540 | 12 | 273 | 9.7 | 20.9 | 0.00 | 0.05 | 0.05 | 86 | 1013.3 |
| 20260905093050 | 12 | 312 | 11.3 | 20.9 | 0.00 | 0.05 | 0.05 | 86 | 1013.2 |
| 20260905092544 | 11 | 44 | 9.7 | 19.3 | 0.00 | 0.05 | 0.05 | 87 | 1013.2 |
| 20260905092039 | 11 | 263 | 9.7 | 22.5 | 0.00 | 0.05 | 0.05 | 88 | 1013.1 |
| 20260905091621 | 11 | 266 | 9.7 | 22.5 | 0.00 | 0.05 | 0.05 | 88 | 1012.7 |
| 20260905091040 | 11 | 293 | 8.0 | 22.5 | 0.00 | 0.05 | 0.05 | 89 | 1012.4 |
| 20260905090539 | 11 | 271 | 6.4 | 16.1 | 0.00 | 0.05 | 0.05 | 89 | 1012.2 |
| 20260905090118 | 11 | 248 | 4.8 | 17.7 | 0.00 | 0.05 | 0.05 | 89 | 1012.3 |
| 20260905085540 | 11 | 289 | 9.7 | 20.9 | 0.00 | 0.05 | 0.05 | 89 | 1012.3 |
| 20260905085039 | 11 | 257 | 11.3 | 30.6 | 0.00 | 0.05 | 0.05 | 89 | 1012.5 |
| 20260905084605 | 11 | 276 | 17.7 | 33.8 | 0.00 | 0.05 | 0.05 | 89 | 1012.1 |
| 20260905084040 | 11 | 309 | 20.9 | 38.6 | 0.00 | 0.05 | 0.05 | 89 | 1012.5 |
| 20260905083540 | 11 | 268 | 20.9 | 38.6 | 0.00 | 0.05 | 0.05 | 90 | 1012.7 |
| 20260905083050 | 11 | 297 | 20.9 | 38.6 | 0.00 | 0.05 | 0.05 | 90 | 1013.0 |
| 20260905082540 | 11 | 270 | 17.7 | 30.6 | 0.00 | 0.05 | 0.05 | 90 | 1013.2 |
| 20260905082040 | 12 | 298 | 19.3 | 30.6 | 0.00 | 0.05 | 0.05 | 90 | 1013.6 |
| 20260905081546 | 12 | 275 | 19.3 | 29.0 | 0.00 | 0.05 | 0.05 | 90 | 1013.9 |
| 20260905081039 | 11 | 288 | 14.5 | 27.4 | 0.00 | 0.05 | 0.05 | 91 | 1013.9 |
| 20260905080543 | 12 | 263 | 17.7 | 29.0 | 0.00 | 0.05 | 0.05 | 90 | 1014.0 |
| 20260905080101 | 12 | 283 | 17.7 | 29.0 | 0.00 | 0.05 | 0.05 | 90 | 1013.9 |
| 20260905075540 | 12 | 279 | 17.7 | 29.0 | 0.00 | 0.05 | 0.05 | 89 | 1013.9 |
| 20260905075040 | 12 | 267 | 16.1 | 29.0 | 0.00 | 0.05 | 0.05 | 87 | 1014.0 |
| 20260905074551 | 12 | 272 | 20.9 | 32.2 | 0.00 | 0.05 | 0.05 | 86 | 1013.8 |
| 20260905074040 | 12 | 301 | 20.9 | 32.2 | 0.00 | 0.05 | 0.05 | 86 | 1013.6 |
| 20260905073552 | 12 | 260 | 19.3 | 32.2 | 0.00 | 0.05 | 0.05 | 86 | 1013.5 |
| 20260905073055 | 12 | 269 | 20.9 | 32.2 | 0.00 | 0.05 | 0.05 | 85 | 1013.4 |
| 20260905072540 | 12 | 288 | 19.3 | 29.0 | 0.00 | 0.05 | 0.05 | 84 | 1013.2 |
| 20260905072041 | 12 | 264 | 14.5 | 40.2 | 0.00 | 0.05 | 0.05 | 83 | 1013.3 |
| 20260905071558 | 12 | 295 | 19.3 | 40.2 | 0.00 | 0.05 | 0.05 | 83 | 1013.3 |
| 20260905071043 | 12 | 308 | 22.5 | 37.0 | 0.00 | 0.05 | 0.05 | 83 | 1013.1 |
| 20260905070539 | 12 | 273 | 20.9 | 37.0 | 0.00 | 0.05 | 0.05 | 84 | 1013.0 |
| 20260905070101 | 12 | 248 | 19.3 | 43.5 | 0.00 | 0.05 | 0.05 | 83 | 1012.9 |
| 20260905065541 | 12 | 232 | 19.3 | 43.5 | 0.00 | 0.05 | 0.05 | 82 | 1012.8 |
| 20260905065039 | 12 | 311 | 24.1 | 40.2 | 0.00 | 0.05 | 0.05 | 81 | 1012.5 |
| 20260905064550 | 12 | 300 | 24.1 | 40.2 | 0.00 | 0.05 | 0.05 | 81 | 1012.4 |
| 20260905064038 | 12 | 293 | 27.4 | 40.2 | 0.00 | 0.05 | 0.05 | 80 | 1012.4 |
| 20260905063539 | 12 | 319 | 24.1 | 48.3 | 0.00 | 0.05 | 0.05 | 81 | 1012.3 |
| 20260905063048 | 12 | 292 | 20.9 | 48.3 | 0.00 | 0.05 | 0.05 | 82 | 1012.5 |
| 20260905062538 | 12 | 284 | 25.7 | 48.3 | 0.00 | 0.05 | 0.05 | 82 | 1012.5 |
| 20260905062039 | 12 | 281 | 19.3 | 41.8 | 0.00 | 0.05 | 0.05 | 83 | 1012.5 |
| 20260905061619 | 12 | 238 | 19.3 | 41.8 | 0.00 | 0.05 | 0.05 | 83 | 1012.6 |
| 20260905061039 | 12 | 280 | 22.5 | 41.8 | 0.00 | 0.05 | 0.05 | 83 | 1012.4 |
| 20260905060539 | 12 | 245 | 24.1 | 43.5 | 0.00 | 0.05 | 0.05 | 83 | 1012.4 |
| 20260905060112 | 12 | 260 | 22.5 | 43.5 | 0.00 | 0.05 | 0.05 | 83 | 1012.3 |
| 20260905055539 | 12 | 289 | 19.3 | 43.5 | 0.00 | 0.05 | 0.05 | 83 | 1012.4 |
| 20260905055039 | 12 | 275 | 20.9 | 45.1 | 0.00 | 0.05 | 0.05 | 83 | 1012.4 |
| 20260905054555 | 12 | 306 | 24.1 | 45.1 | 0.00 | 0.05 | 0.05 | 84 | 1012.4 |
| 20260905054039 | 12 | 264 | 25.7 | 51.5 | 0.00 | 0.05 | 0.05 | 84 | 1012.5 |
| 20260905053539 | 12 | 277 | 24.1 | 51.5 | 0.00 | 0.05 | 0.05 | 84 | 1012.3 |
| 20260905053048 | 12 | 288 | 22.5 | 40.2 | 0.00 | 0.05 | 0.05 | 84 | 1012.2 |
| 20260905052543 | 12 | 313 | 22.5 | 41.8 | 0.00 | 0.05 | 0.05 | 83 | 1012.2 |
| 20260905052040 | 12 | 240 | 19.3 | 41.8 | 0.00 | 0.05 | 0.05 | 83 | 1012.3 |
| 20260905051548 | 12 | 269 | 22.5 | 41.8 | 0.00 | 0.05 | 0.05 | 82 | 1012.3 |
| 20260905051038 | 12 | 295 | 22.5 | 40.2 | 0.00 | 0.05 | 0.05 | 82 | 1012.3 |
| 20260905050539 | 12 | 255 | 25.7 | 40.2 | 0.00 | 0.05 | 0.05 | 81 | 1012.4 |
| 20260905050059 | 13 | 317 | 19.3 | 32.2 | 0.00 | 0.05 | 0.05 | 80 | 1012.4 |
| 20260905045538 | 13 | 253 | 19.3 | 38.6 | 0.00 | 0.05 | 0.05 | 79 | 1012.4 |
| 20260905045038 | 13 | 277 | 17.7 | 38.6 | 0.00 | 0.05 | 0.05 | 78 | 1012.4 |
| 20260905044556 | 13 | 287 | 14.5 | 38.6 | 0.00 | 0.05 | 0.05 | 78 | 1012.5 |
| 20260905044039 | 13 | 270 | 20.9 | 43.5 | 0.00 | 0.05 | 0.05 | 77 | 1012.4 |
| 20260905043539 | 13 | 262 | 22.5 | 46.7 | 0.00 | 0.05 | 0.05 | 78 | 1012.3 |
| 20260905043049 | 13 | 306 | 20.9 | 51.5 | 0.00 | 0.05 | 0.05 | 78 | 1012.2 |
| 20260905042539 | 13 | 273 | 27.4 | 51.5 | 0.00 | 0.05 | 0.05 | 77 | 1012.3 |
| 20260905042039 | 13 | 277 | 25.7 | 43.5 | 0.00 | 0.05 | 0.05 | 78 | 1012.3 |
| 20260905041603 | 13 | 313 | 22.5 | 40.2 | 0.00 | 0.05 | 0.05 | 79 | 1012.4 |
| 20260905041039 | 14 | 318 | 19.3 | 46.7 | 0.00 | 0.05 | 0.05 | 80 | 1012.7 |
| 20260905040540 | 14 | 289 | 19.3 | 46.7 | 0.00 | 0.05 | 0.05 | 81 | 1013.0 |
| 20260905040057 | 13 | 307 | 20.9 | 46.7 | 0.00 | 0.05 | 0.05 | 81 | 1012.9 |
| 20260905035539 | 13 | 295 | 19.3 | 41.8 | 0.00 | 0.05 | 0.05 | 82 | 1013.0 |
| 20260905035039 | 13 | 263 | 20.9 | 41.8 | 0.00 | 0.05 | 0.05 | 82 | 1013.0 |
| 20260905034602 | 13 | 296 | 17.7 | 32.2 | 0.00 | 0.05 | 0.05 | 82 | 1012.9 |
| 20260905034043 | 13 | 290 | 16.1 | 32.2 | 0.00 | 0.05 | 0.05 | 83 | 1012.9 |
| 20260905033620 | 13 | 290 | 17.7 | 38.6 | 0.00 | 0.05 | 0.05 | 82 | 1012.9 |
| 20260905033047 | 13 | 271 | 22.5 | 38.6 | 0.00 | 0.05 | 0.05 | 82 | 1012.9 |
| 20260905032541 | 13 | 263 | 19.3 | 38.6 | 0.00 | 0.05 | 0.05 | 83 | 1013.0 |
| 20260905032038 | 13 | 288 | 19.3 | 38.6 | 0.00 | 0.05 | 0.05 | 82 | 1013.1 |
| 20260905031559 | 13 | 270 | 16.1 | 35.4 | 0.03 | 0.05 | 0.05 | 83 | 1013.1 |
| 20260905031039 | 13 | 250 | 20.9 | 33.8 | 0.03 | 0.05 | 0.05 | 84 | 1013.2 |
| 20260905030538 | 13 | 258 | 17.7 | 32.2 | 0.03 | 0.05 | 0.05 | 86 | 1013.2 |
| 20260905030054 | 13 | 300 | 16.1 | 30.6 | 0.03 | 0.05 | 0.05 | 88 | 1013.3 |
| 20260905025538 | 12 | 247 | 12.9 | 25.7 | 0.05 | 0.05 | 0.05 | 87 | 1013.4 |
| 20260905025040 | 12 | 245 | 16.1 | 25.7 | 0.05 | 0.05 | 0.05 | 88 | 1013.5 |
| 20260905024600 | 12 | 244 | 14.5 | 27.4 | 0.05 | 0.05 | 0.05 | 89 | 1013.6 |
| 20260905024039 | 12 | 236 | 17.7 | 27.4 | 0.05 | 0.05 | 0.05 | 90 | 1013.7 |
| 20260905023539 | 12 | 234 | 17.7 | 29.0 | 0.05 | 0.05 | 0.05 | 91 | 1013.8 |
| 20260905023104 | 12 | 250 | 14.5 | 29.0 | 0.05 | 0.05 | 0.05 | 90 | 1013.8 |
| 20260905022538 | 12 | 260 | 19.3 | 43.5 | 0.05 | 0.05 | 0.05 | 89 | 1013.7 |
| 20260905022039 | 13 | 252 | 22.5 | 51.5 | 0.05 | 0.05 | 0.05 | 85 | 1013.7 |
| 20260905021557 | 13 | 304 | 24.1 | 51.5 | 0.00 | 0.00 | 0.00 | 81 | 1013.5 |
| 20260905021038 | 13 | 251 | 24.1 | 49.9 | 0.00 | 0.00 | 0.00 | 81 | 1013.5 |
| 20260905020542 | 13 | 273 | 19.3 | 46.7 | 0.00 | 0.00 | 0.00 | 86 | 1013.3 |
| 20260905020055 | 13 | 261 | 22.5 | 46.7 | 0.00 | 0.00 | 0.00 | 83 | 1013.6 |
| 20260905015539 | 13 | 267 | 24.1 | 46.7 | 0.00 | 0.00 | 0.00 | 80 | 1013.8 |
| 20260905015042 | 14 | 243 | 16.1 | 46.7 | 0.00 | 0.00 | 0.00 | 78 | 1013.8 |
| 20260905014554 | 14 | 252 | 22.5 | 46.7 | 0.00 | 0.00 | 0.00 | 76 | 1013.7 |
| 20260905014039 | 14 | 239 | 19.3 | 43.5 | 0.00 | 0.00 | 0.00 | 79 | 1013.8 |
| 20260905013539 | 15 | 273 | 17.7 | 43.5 | 0.00 | 0.00 | 0.00 | 78 | 1013.8 |
| 20260905013050 | 15 | 271 | 19.3 | 38.6 | 0.00 | 0.00 | 0.00 | 79 | 1013.9 |
| 20260905012540 | 14 | 281 | 24.1 | 38.6 | 0.00 | 0.00 | 0.00 | 78 | 1014.0 |
| 20260905012041 | 15 | 231 | 17.7 | 32.2 | 0.00 | 0.00 | 0.00 | 78 | 1013.9 |
| 20260905011549 | 14 | 265 | 19.3 | 38.6 | 0.00 | 0.00 | 0.00 | 79 | 1014.0 |
| 20260905011039 | 15 | 298 | 19.3 | 38.6 | 0.00 | 0.00 | 0.00 | 76 | 1014.1 |
| 20260905010539 | 15 | 292 | 19.3 | 35.4 | 0.00 | 0.00 | 0.00 | 78 | 1014.1 |
| 20260905010057 | 15 | 240 | 19.3 | 43.5 | 0.00 | 0.00 | 0.00 | 77 | 1014.0 |
| 20260905005539 | 15 | 279 | 19.3 | 43.5 | 0.00 | 0.00 | 0.00 | 78 | 1014.1 |
| 20260905005039 | 15 | 285 | 22.5 | 43.5 | 0.00 | 0.00 | 0.00 | 76 | 1014.2 |
| 20260905004557 | 15 | 319 | 19.3 | 35.4 | 0.00 | 0.00 | 0.00 | 78 | 1014.5 |
| 20260905004039 | 14 | 317 | 19.3 | 35.4 | 0.00 | 0.00 | 0.00 | 77 | 1014.7 |
| 20260905003539 | 14 | 317 | 19.3 | 35.4 | 0.00 | 0.00 | 0.00 | 76 | 1014.7 |
| 20260905003051 | 14 | 292 | 20.9 | 35.4 | 0.00 | 0.00 | 0.00 | 77 | 1014.7 |
| 20260905002539 | 14 | 259 | 17.7 | 38.6 | 0.00 | 0.00 | 0.00 | 78 | 1014.7 |
| 20260905002039 | 14 | 314 | 16.1 | 38.6 | 0.00 | 0.00 | 0.00 | 79 | 1014.7 |
| 20260905001606 | 13 | 246 | 12.9 | 32.2 | 0.00 | 0.00 | 0.00 | 81 | 1015.0 |
| 20260905001038 | 13 | 291 | 14.5 | 32.2 | 0.00 | 0.00 | 0.00 | 79 | 1015.0 |
| 20260905000539 | 13 | 236 | 16.1 | 32.2 | 0.00 | 0.00 | 0.00 | 79 | 1015.2 |
| 20260905000112 | 13 | 235 | 16.1 | 27.4 | 0.00 | 0.00 | 0.00 | 79 | 1015.3 |
| 20260904235541 | 13 | 294 | 12.9 | 25.7 | 0.00 | 0.00 | 0.00 | 80 | 1015.4 |
| 20260904235038 | 13 | 271 | 16.1 | 27.4 | 0.00 | 0.00 | 0.00 | 78 | 1015.3 |
| 20260904234557 | 13 | 272 | 17.7 | 30.6 | 0.00 | 0.00 | 0.00 | 76 | 1015.3 |
| 20260904234039 | 13 | 257 | 16.1 | 33.8 | 0.00 | 0.00 | 0.00 | 79 | 1015.3 |
| 20260904233539 | 13 | 254 | 17.7 | 33.8 | 0.00 | 0.00 | 0.00 | 77 | 1015.3 |
| 20260904233109 | 13 | 265 | 19.3 | 33.8 | 0.00 | 0.00 | 0.00 | 75 | 1015.3 |
| 20260904232538 | 13 | 263 | 17.7 | 30.6 | 0.00 | 0.00 | 0.00 | 78 | 1015.2 |
| 20260904232040 | 13 | 274 | 14.5 | 25.7 | 0.00 | 0.00 | 0.00 | 78 | 1015.3 |
| 20260904231555 | 13 | 255 | 12.9 | 24.1 | 0.00 | 0.00 | 0.00 | 79 | 1015.3 |
| 20260904231039 | 13 | 232 | 14.5 | 25.7 | 0.00 | 0.00 | 0.00 | 78 | 1015.3 |
| 20260904230539 | 13 | 252 | 14.5 | 25.7 | 0.00 | 0.00 | 0.00 | 78 | 1015.3 |
| 20260904230105 | 13 | 267 | 12.9 | 29.0 | 0.00 | 0.00 | 0.00 | 80 | 1015.3 |
| 20260904225539 | 13 | 244 | 12.9 | 29.0 | 0.00 | 0.08 | 0.00 | 79 | 1015.4 |
| 20260904225038 | 14 | 270 | 12.9 | 29.0 | 0.00 | 0.08 | 0.00 | 79 | 1015.2 |
| 20260904224601 | 14 | 243 | 14.5 | 29.0 | 0.00 | 0.08 | 0.00 | 78 | 1015.3 |
| 20260904224039 | 14 | 250 | 17.7 | 29.0 | 0.00 | 0.08 | 0.00 | 79 | 1015.4 |
| 20260904223539 | 13 | 273 | 17.7 | 29.0 | 0.00 | 0.08 | 0.00 | 79 | 1015.3 |
| 20260904223114 | 13 | 34 | 14.5 | 29.0 | 0.00 | 0.08 | 0.00 | 79 | 1015.2 |
| 20260904222539 | 13 | 252 | 16.1 | 29.0 | 0.00 | 0.08 | 0.00 | 77 | 1015.1 |
| 20260904222039 | 14 | 284 | 16.1 | 27.4 | 0.00 | 0.08 | 0.00 | 79 | 1015.1 |
| 20260904221548 | 13 | 305 | 16.1 | 27.4 | 0.00 | 0.08 | 0.00 | 78 | 1015.1 |
| 20260904221039 | 14 | 247 | 11.3 | 27.4 | 0.00 | 0.08 | 0.00 | 79 | 1015.1 |
| 20260904220539 | 13 | 244 | 14.5 | 30.6 | 0.00 | 0.08 | 0.00 | 77 | 1014.9 |
| 20260904220058 | 13 | 276 | 19.3 | 30.6 | 0.00 | 0.08 | 0.00 | 75 | 1015.0 |
| 20260904215539 | 13 | 250 | 16.1 | 30.6 | 0.00 | 0.08 | 0.00 | 75 | 1015.0 |
| 20260904215041 | 13 | 237 | 19.3 | 30.6 | 0.00 | 0.08 | 0.00 | 76 | 1014.8 |
| 20260904214555 | 13 | 293 | 17.7 | 30.6 | 0.00 | 0.08 | 0.00 | 75 | 1014.8 |
| 20260904214039 | 13 | 285 | 19.3 | 32.2 | 0.00 | 0.08 | 0.00 | 75 | 1014.7 |
| 20260904213539 | 13 | 268 | 19.3 | 32.2 | 0.00 | 0.08 | 0.00 | 75 | 1014.7 |
| 20260904213101 | 13 | 275 | 19.3 | 27.4 | 0.00 | 0.08 | 0.00 | 77 | 1014.7 |
| 20260904212540 | 13 | 296 | 19.3 | 30.6 | 0.00 | 0.08 | 0.00 | 77 | 1014.6 |
| 20260904212039 | 13 | 275 | 14.5 | 30.6 | 0.00 | 0.08 | 0.00 | 77 | 1014.6 |
| 20260904211550 | 13 | 286 | 14.5 | 27.4 | 0.00 | 0.08 | 0.00 | 78 | 1014.9 |
| 20260904211037 | 13 | 298 | 12.9 | 25.7 | 0.00 | 0.08 | 0.00 | 79 | 1014.9 |
| 20260904210539 | 13 | 306 | 12.9 | 22.5 | 0.00 | 0.08 | 0.00 | 79 | 1014.9 |
| 20260904210105 | 13 | 273 | 8.0 | 22.5 | 0.00 | 0.08 | 0.00 | 79 | 1015.0 |
| 20260904205538 | 13 | 304 | 12.9 | 22.5 | 0.00 | 0.10 | 0.00 | 80 | 1015.0 |
| 20260904205038 | 13 | 271 | 12.9 | 19.3 | 0.00 | 0.10 | 0.00 | 79 | 1015.0 |
| 20260904204601 | 13 | 281 | 11.3 | 17.7 | 0.00 | 0.10 | 0.00 | 81 | 1015.0 |
| 20260904204043 | 13 | 293 | 11.3 | 25.7 | 0.00 | 0.10 | 0.00 | 80 | 1014.9 |
| 20260904203539 | 12 | 254 | 9.7 | 25.7 | 0.00 | 0.10 | 0.00 | 82 | 1014.9 |
| 20260904203101 | 12 | 293 | 12.9 | 25.7 | 0.00 | 0.10 | 0.00 | 83 | 1014.9 |
| 20260904202536 | 12 | 252 | 1.6 | 4.8 | 0.00 | 0.10 | 0.00 | 84 | 1014.8 |
| 20260904202038 | 12 | 36 | 0.0 | 6.4 | 0.00 | 0.10 | 0.00 | 83 | 1014.8 |
| 20260904201548 | 12 | 178 | 0.0 | 11.3 | 0.00 | 0.10 | 0.00 | 83 | 1014.7 |
| 20260904201036 | 12 | 44 | 1.6 | 11.3 | 0.00 | 0.10 | 0.00 | 83 | 1014.6 |
| 20260904200538 | 12 | 321 | 4.8 | 11.3 | 0.00 | 0.10 | 0.00 | 83 | 1014.4 |
| 20260904200057 | 12 | 273 | 4.8 | 11.3 | 0.00 | 0.10 | 0.00 | 84 | 1014.5 |
| 20260904195537 | 12 | 267 | 1.6 | 6.4 | 0.00 | 0.10 | 0.00 | 85 | 1014.5 |
| 20260904195039 | 11 | 265 | 0.0 | 14.5 | 0.00 | 0.10 | 0.00 | 85 | 1014.4 |
| 20260904194555 | 11 | 271 | 4.8 | 16.1 | 0.00 | 0.10 | 0.00 | 85 | 1014.3 |
| 20260904194039 | 11 | 285 | 9.7 | 20.9 | 0.00 | 0.10 | 0.00 | 85 | 1014.3 |
| 20260904193541 | 11 | 284 | 12.9 | 24.1 | 0.00 | 0.10 | 0.00 | 85 | 1014.2 |
| 20260904193103 | 11 | 296 | 14.5 | 24.1 | 0.00 | 0.10 | 0.00 | 85 | 1014.1 |
| 20260904192536 | 10 | 313 | 16.1 | 22.5 | 0.00 | 0.10 | 0.00 | 85 | 1013.9 |
| 20260904192041 | 10 | 278 | 11.3 | 20.9 | 0.00 | 0.10 | 0.00 | 85 | 1013.8 |
| 20260904191600 | 10 | 276 | 14.5 | 20.9 | 0.00 | 0.10 | 0.00 | 85 | 1013.7 |
| 20260904191037 | 10 | 311 | 12.9 | 20.9 | 0.00 | 0.10 | 0.00 | 85 | 1013.7 |
| 20260904190540 | 10 | 292 | 11.3 | 16.1 | 0.00 | 0.10 | 0.00 | 85 | 1013.7 |
| 20260904190101 | 10 | 279 | 9.7 | 16.1 | 0.00 | 0.10 | 0.00 | 85 | 1013.8 |
| 20260904185540 | 10 | 261 | 8.0 | 16.1 | 0.00 | 0.10 | 0.00 | 85 | 1013.8 |
| 20260904185041 | 10 | 294 | 6.4 | 16.1 | 0.00 | 0.10 | 0.00 | 85 | 1013.9 |
| 20260904184554 | 10 | 269 | 6.4 | 16.1 | 0.00 | 0.10 | 0.00 | 85 | 1013.8 |
| 20260904184039 | 10 | 290 | 8.0 | 16.1 | 0.00 | 0.10 | 0.00 | 86 | 1013.8 |
| 20260904183539 | 10 | 269 | 6.4 | 14.5 | 0.00 | 0.10 | 0.00 | 86 | 1013.7 |
| 20260904183101 | 10 | 264 | 6.4 | 14.5 | 0.00 | 0.10 | 0.00 | 86 | 1013.7 |
| 20260904182538 | 10 | 267 | 6.4 | 14.5 | 0.00 | 0.10 | 0.00 | 86 | 1013.6 |
| 20260904182039 | 10 | 266 | 4.8 | 11.3 | 0.00 | 0.10 | 0.00 | 85 | 1013.5 |
| 20260904181557 | 10 | 275 | 4.8 | 16.1 | 0.00 | 0.10 | 0.00 | 85 | 1013.5 |
| 20260904181039 | 10 | 271 | 4.8 | 16.1 | 0.00 | 0.10 | 0.00 | 85 | 1013.6 |
| 20260904180539 | 10 | 290 | 8.0 | 16.1 | 0.00 | 0.10 | 0.00 | 85 | 1013.3 |
| 20260904180103 | 10 | 271 | 4.8 | 17.7 | 0.00 | 0.10 | 0.00 | 85 | 1013.2 |
| 20260904175539 | 10 | 243 | 6.4 | 19.3 | 0.00 | 0.10 | 0.00 | 85 | 1013.1 |
| 20260904175040 | 10 | 269 | 8.0 | 19.3 | 0.00 | 0.10 | 0.00 | 85 | 1013.0 |
| 20260904174557 | 10 | 277 | 6.4 | 17.7 | 0.00 | 0.10 | 0.00 | 84 | 1013.0 |
| 20260904174040 | 10 | 264 | 8.0 | 17.7 | 0.00 | 0.10 | 0.00 | 84 | 1012.9 |
| 20260904173539 | 11 | 277 | 4.8 | 14.5 | 0.00 | 0.10 | 0.00 | 84 | 1012.9 |